Location: Alfortville
(48.8058°N, 2.4204°E)
Time: 23:16:52
(UTC+00:00)

SR - Pass Details

Date: 27 April 2026
Orbit: 568 x 852 km, 66.7° (Epoch: 19 May)

Event Time Altitude Azimuth Distance (km) Brightness Sun altitude
Rises 21:14:59 0° 314° (NW) 3,344 ? -18.6°
Reaches altitude 10° 21:17:54 10° 300° (WNW) 2,440 ? -18.9°
Maximum altitude 21:22:06 22° 252° (WSW) 1,776 ? -19.3°
Enters shadow 21:26:15 10° 205° (SSW) 2,441 ? -19.7°
